Location: Ocean City
(38.3360°N, 75.0850°W)
Time: 18:47:39
(UTC-04:00)

Max Valier Satellite - Pass Details

Date: 25 May 2019
Orbit: 492 x 507 km, 97.4° (Epoch: 19 June)

Event Time Altitude Azimuth Distance (km) Brightness Sun altitude
Exits shadow 21:31:31 23° 124° (SE) 1,093 ? -13.5°
Maximum altitude 21:33:13 37° 73° (ENE) 794 ? -13.7°
Drops below altitude 10° 21:36:39 10° 5° (N) 1,719 ? -14.2°
Sets 21:38:50 0° 358° (N) 2,610 ? -14.6°
